Index of /20260430/WXO-DD/model_gdps/15km/00/177
Name Last modified Size Description
Parent Directory -
20260430T00Z_MSC_GDPS_AirTemp_AGL-120m_LatLon0.15_PT177H.grib2 2026-04-30 04:33 901K
20260430T00Z_MSC_GDPS_AirTemp_AGL-2m_LatLon0.15_PT177H.grib2 2026-04-30 04:33 1.0M
20260430T00Z_MSC_GDPS_AirTemp_AGL-40m_LatLon0.15_PT177H.grib2 2026-04-30 04:33 802K
20260430T00Z_MSC_GDPS_AirTemp_AGL-80m_LatLon0.15_PT177H.grib2 2026-04-30 04:33 909K
20260430T00Z_MSC_GDPS_AirTemp_IsbL-0001_LatLon0.15_PT177H.grib2 2026-04-30 04:33 663K
20260430T00Z_MSC_GDPS_AirTemp_IsbL-0005_LatLon0.15_PT177H.grib2 2026-04-30 04:33 689K
20260430T00Z_MSC_GDPS_AirTemp_IsbL-0500_LatLon0.15_PT177H.grib2 2026-04-30 04:33 1.0M
20260430T00Z_MSC_GDPS_AirTemp_IsbL-0700_LatLon0.15_PT177H.grib2 2026-04-30 04:33 958K
20260430T00Z_MSC_GDPS_AirTemp_IsbL-0850_LatLon0.15_PT177H.grib2 2026-04-30 04:33 1.1M
20260430T00Z_MSC_GDPS_AirTemp_IsbL-0925_LatLon0.15_PT177H.grib2 2026-04-30 04:33 1.1M
20260430T00Z_MSC_GDPS_AirTemp_IsbL-1000_LatLon0.15_PT177H.grib2 2026-04-30 04:33 1.1M
20260430T00Z_MSC_GDPS_Albedo_Sfc_LatLon0.15_PT177H.grib2 2026-04-30 04:33 241K
20260430T00Z_MSC_GDPS_ConvectivePrecip-Accum_Sfc_LatLon0.15_PT177H.grib2 2026-04-30 04:33 3.8M
20260430T00Z_MSC_GDPS_DewPointDepression_AGL-2m_LatLon0.15_PT177H.grib2 2026-04-30 04:33 757K
20260430T00Z_MSC_GDPS_DewPointDepression_IsbL-0500_LatLon0.15_PT177H.grib2 2026-04-30 04:33 1.0M
20260430T00Z_MSC_GDPS_DewPointDepression_IsbL-0700_LatLon0.15_PT177H.grib2 2026-04-30 04:33 1.1M
20260430T00Z_MSC_GDPS_DewPointDepression_IsbL-0850_LatLon0.15_PT177H.grib2 2026-04-30 04:33 1.2M
20260430T00Z_MSC_GDPS_DewPointDepression_IsbL-0925_LatLon0.15_PT177H.grib2 2026-04-30 04:33 1.0M
20260430T00Z_MSC_GDPS_DewPointDepression_IsbL-1000_LatLon0.15_PT177H.grib2 2026-04-30 04:33 962K
20260430T00Z_MSC_GDPS_DewPoint_AGL-2m_LatLon0.15_PT177H.grib2 2026-04-30 04:33 608K
20260430T00Z_MSC_GDPS_DownwardLongwaveRadiationFlux-Accum_Sfc_LatLon0.15_PT177H.grib2 2026-04-30 04:33 647K
20260430T00Z_MSC_GDPS_DownwardShortwaveRadiationFlux-Accum_Sfc_LatLon0.15_PT177H.grib2 2026-04-30 04:33 833K
20260430T00Z_MSC_GDPS_FreezingRain-Accum_Sfc_LatLon0.15_PT177H.grib2 2026-04-30 04:33 375K
20260430T00Z_MSC_GDPS_GeopotentialHeight_IsbL-0001_LatLon0.15_PT177H.grib2 2026-04-30 04:33 435K
20260430T00Z_MSC_GDPS_GeopotentialHeight_IsbL-0005_LatLon0.15_PT177H.grib2 2026-04-30 04:33 491K
20260430T00Z_MSC_GDPS_GeopotentialHeight_IsbL-0500_LatLon0.15_PT177H.grib2 2026-04-30 04:33 529K
20260430T00Z_MSC_GDPS_GeopotentialHeight_IsbL-0700_LatLon0.15_PT177H.grib2 2026-04-30 04:33 688K
20260430T00Z_MSC_GDPS_GeopotentialHeight_IsbL-0850_LatLon0.15_PT177H.grib2 2026-04-30 04:33 717K
20260430T00Z_MSC_GDPS_GeopotentialHeight_IsbL-0925_LatLon0.15_PT177H.grib2 2026-04-30 04:33 738K
20260430T00Z_MSC_GDPS_GeopotentialHeight_IsbL-1000_LatLon0.15_PT177H.grib2 2026-04-30 04:33 791K
20260430T00Z_MSC_GDPS_IcePellets-Accum_Sfc_LatLon0.15_PT177H.grib2 2026-04-30 04:33 122K
20260430T00Z_MSC_GDPS_LatentHeatNetFlux_Sfc_LatLon0.15_PT177H.grib2 2026-04-30 04:33 738K
20260430T00Z_MSC_GDPS_NetLongwaveRadiationFlux-Accum_Sfc_LatLon0.15_PT177H.grib2 2026-04-30 04:33 1.1M
20260430T00Z_MSC_GDPS_NetShortwaveRadiationFlux-Accum_Sfc_LatLon0.15_PT177H.grib2 2026-04-30 04:33 831K
20260430T00Z_MSC_GDPS_O3MixingRatio_Sfc_LatLon0.15_PT177H.grib2 2026-04-30 04:51 1.9M
20260430T00Z_MSC_GDPS_O3_EAtm_LatLon0.15_PT177H.grib2 2026-04-30 04:51 2.4M
20260430T00Z_MSC_GDPS_PlanetaryBoundaryLayerHeight_Sfc_LatLon0.15_PT177H.grib2 2026-04-30 04:33 2.5M
20260430T00Z_MSC_GDPS_Precip-Accum_Sfc_LatLon0.15_PT177H.grib2 2026-04-30 04:33 5.4M
20260430T00Z_MSC_GDPS_PrecipRate_Sfc_LatLon0.15_PT177H.grib2 2026-04-30 04:33 3.0M
20260430T00Z_MSC_GDPS_Pressure_MSL_LatLon0.15_PT177H.grib2 2026-04-30 04:33 830K
20260430T00Z_MSC_GDPS_Pressure_Sfc_LatLon0.15_PT177H.grib2 2026-04-30 04:33 1.1M
20260430T00Z_MSC_GDPS_RadiativeTemp_Sfc_LatLon0.15_PT177H.grib2 2026-04-30 04:33 504K
20260430T00Z_MSC_GDPS_Rain-Accum_Sfc_LatLon0.15_PT177H.grib2 2026-04-30 04:33 4.2M
20260430T00Z_MSC_GDPS_RelativeHumidity_AGL-2m_LatLon0.15_PT177H.grib2 2026-04-30 04:33 1.1M
20260430T00Z_MSC_GDPS_Runoff-Accum_Sfc_LatLon0.15_PT177H.grib2 2026-04-30 04:33 123K
20260430T00Z_MSC_GDPS_SensibleHeatNetFlux_Sfc_LatLon0.15_PT177H.grib2 2026-04-30 04:33 502K
20260430T00Z_MSC_GDPS_Snow-Accum_Sfc_LatLon0.15_PT177H.grib2 2026-04-30 04:33 2.1M
20260430T00Z_MSC_GDPS_SnowDepth_Sfc_LatLon0.15_PT177H.grib2 2026-04-30 04:33 1.7M
20260430T00Z_MSC_GDPS_SoilTemp_DBS-0to10cm_LatLon0.15_PT177H.grib2 2026-04-30 04:33 514K
20260430T00Z_MSC_GDPS_SoilTemp_Sfc_LatLon0.15_PT177H.grib2 2026-04-30 04:33 592K
20260430T00Z_MSC_GDPS_SoilVolumetricWaterContent_DBS-0to10cm_LatLon0.15_PT177H.grib2 2026-04-30 04:33 593K
20260430T00Z_MSC_GDPS_SoilVolumetricWaterContent_DBS-0to1cm_LatLon0.15_PT177H.grib2 2026-04-30 04:33 650K
20260430T00Z_MSC_GDPS_SpecificHumidity_AGL-120m_LatLon0.15_PT177H.grib2 2026-04-30 04:33 1.1M
20260430T00Z_MSC_GDPS_SpecificHumidity_AGL-2m_LatLon0.15_PT177H.grib2 2026-04-30 04:33 1.2M
20260430T00Z_MSC_GDPS_SpecificHumidity_AGL-40m_LatLon0.15_PT177H.grib2 2026-04-30 04:33 1.1M
20260430T00Z_MSC_GDPS_SpecificHumidity_AGL-80m_LatLon0.15_PT177H.grib2 2026-04-30 04:33 1.1M
20260430T00Z_MSC_GDPS_SpecificHumidity_IsbL-0001_LatLon0.15_PT177H.grib2 2026-04-30 04:33 1.2M
20260430T00Z_MSC_GDPS_SpecificHumidity_IsbL-0005_LatLon0.15_PT177H.grib2 2026-04-30 04:33 1.1M
20260430T00Z_MSC_GDPS_SpecificHumidity_IsbL-0500_LatLon0.15_PT177H.grib2 2026-04-30 04:33 1.4M
20260430T00Z_MSC_GDPS_SpecificHumidity_IsbL-0700_LatLon0.15_PT177H.grib2 2026-04-30 04:33 1.6M
20260430T00Z_MSC_GDPS_SpecificHumidity_IsbL-0850_LatLon0.15_PT177H.grib2 2026-04-30 04:33 1.9M
20260430T00Z_MSC_GDPS_SpecificHumidity_IsbL-0925_LatLon0.15_PT177H.grib2 2026-04-30 04:33 1.6M
20260430T00Z_MSC_GDPS_SpecificHumidity_IsbL-1000_LatLon0.15_PT177H.grib2 2026-04-30 04:33 1.5M
20260430T00Z_MSC_GDPS_SpecificHumidity_Sfc_LatLon0.15_PT177H.grib2 2026-04-30 04:33 688K
20260430T00Z_MSC_GDPS_Thickness_IsbL-0850to0700_LatLon0.15_PT177H.grib2 2026-04-30 04:33 470K
20260430T00Z_MSC_GDPS_Thickness_IsbL-1000to0500_LatLon0.15_PT177H.grib2 2026-04-30 04:33 376K
20260430T00Z_MSC_GDPS_Thickness_IsbL-1000to0850_LatLon0.15_PT177H.grib2 2026-04-30 04:33 491K
20260430T00Z_MSC_GDPS_TotalCloudCover_Sfc_LatLon0.15_PT177H.grib2 2026-04-30 04:33 820K
20260430T00Z_MSC_GDPS_UVIndex-ClearSky_Sfc_LatLon0.15_PT177H.grib2 2026-04-30 04:51 1.1M
20260430T00Z_MSC_GDPS_UVIndex_Sfc_LatLon0.15_PT177H.grib2 2026-04-30 04:51 1.5M
20260430T00Z_MSC_GDPS_UpwardLongwaveRadiationFlux_NTAtm_LatLon0.15_PT177H.grib2 2026-04-30 04:33 835K
20260430T00Z_MSC_GDPS_VerticalVelocity_IsbL-0500_LatLon0.15_PT177H.grib2 2026-04-30 04:33 1.0M
20260430T00Z_MSC_GDPS_VerticalVelocity_IsbL-0700_LatLon0.15_PT177H.grib2 2026-04-30 04:33 1.4M
20260430T00Z_MSC_GDPS_VerticalVelocity_IsbL-0850_LatLon0.15_PT177H.grib2 2026-04-30 04:33 1.3M
20260430T00Z_MSC_GDPS_WindDir_AGL-10m_LatLon0.15_PT177H.grib2 2026-04-30 04:33 1.3M
20260430T00Z_MSC_GDPS_WindDir_AGL-120m_LatLon0.15_PT177H.grib2 2026-04-30 04:33 1.3M
20260430T00Z_MSC_GDPS_WindDir_AGL-40m_LatLon0.15_PT177H.grib2 2026-04-30 04:33 1.4M
20260430T00Z_MSC_GDPS_WindDir_AGL-80m_LatLon0.15_PT177H.grib2 2026-04-30 04:33 1.3M
20260430T00Z_MSC_GDPS_WindDir_IsbL-0001_LatLon0.15_PT177H.grib2 2026-04-30 04:33 657K
20260430T00Z_MSC_GDPS_WindDir_IsbL-0005_LatLon0.15_PT177H.grib2 2026-04-30 04:33 812K
20260430T00Z_MSC_GDPS_WindDir_IsbL-0500_LatLon0.15_PT177H.grib2 2026-04-30 04:33 1.4M
20260430T00Z_MSC_GDPS_WindDir_IsbL-0700_LatLon0.15_PT177H.grib2 2026-04-30 04:33 1.6M
20260430T00Z_MSC_GDPS_WindDir_IsbL-0850_LatLon0.15_PT177H.grib2 2026-04-30 04:33 1.9M
20260430T00Z_MSC_GDPS_WindDir_IsbL-0925_LatLon0.15_PT177H.grib2 2026-04-30 04:33 1.9M
20260430T00Z_MSC_GDPS_WindDir_IsbL-1000_LatLon0.15_PT177H.grib2 2026-04-30 04:33 2.0M
20260430T00Z_MSC_GDPS_WindGust-Max_AGL-10m_LatLon0.15_PT177H.grib2 2026-04-30 04:33 2.2M
20260430T00Z_MSC_GDPS_WindGust-Min_AGL-10m_LatLon0.15_PT177H.grib2 2026-04-30 04:33 2.2M
20260430T00Z_MSC_GDPS_WindGust_AGL-10m_LatLon0.15_PT177H.grib2 2026-04-30 04:33 2.1M
20260430T00Z_MSC_GDPS_WindSpeed_AGL-10m_LatLon0.15_PT177H.grib2 2026-04-30 04:33 1.1M
20260430T00Z_MSC_GDPS_WindSpeed_AGL-120m_LatLon0.15_PT177H.grib2 2026-04-30 04:33 1.2M
20260430T00Z_MSC_GDPS_WindSpeed_AGL-40m_LatLon0.15_PT177H.grib2 2026-04-30 04:33 1.2M
20260430T00Z_MSC_GDPS_WindSpeed_AGL-80m_LatLon0.15_PT177H.grib2 2026-04-30 04:33 1.2M
20260430T00Z_MSC_GDPS_WindSpeed_IsbL-0001_LatLon0.15_PT177H.grib2 2026-04-30 04:33 646K
20260430T00Z_MSC_GDPS_WindSpeed_IsbL-0005_LatLon0.15_PT177H.grib2 2026-04-30 04:33 689K
20260430T00Z_MSC_GDPS_WindSpeed_IsbL-0500_LatLon0.15_PT177H.grib2 2026-04-30 04:33 1.1M
20260430T00Z_MSC_GDPS_WindSpeed_IsbL-0700_LatLon0.15_PT177H.grib2 2026-04-30 04:33 1.5M
20260430T00Z_MSC_GDPS_WindSpeed_IsbL-0850_LatLon0.15_PT177H.grib2 2026-04-30 04:33 1.7M
20260430T00Z_MSC_GDPS_WindSpeed_IsbL-0925_LatLon0.15_PT177H.grib2 2026-04-30 04:33 1.8M
20260430T00Z_MSC_GDPS_WindSpeed_IsbL-1000_LatLon0.15_PT177H.grib2 2026-04-30 04:33 1.9M
20260430T00Z_MSC_GDPS_WindU_AGL-10m_LatLon0.15_PT177H.grib2 2026-04-30 04:33 1.3M
20260430T00Z_MSC_GDPS_WindU_AGL-120m_LatLon0.15_PT177H.grib2 2026-04-30 04:33 1.0M
20260430T00Z_MSC_GDPS_WindU_AGL-40m_LatLon0.15_PT177H.grib2 2026-04-30 04:33 956K
20260430T00Z_MSC_GDPS_WindU_AGL-80m_LatLon0.15_PT177H.grib2 2026-04-30 04:33 1.0M
20260430T00Z_MSC_GDPS_WindU_IsbL-0001_LatLon0.15_PT177H.grib2 2026-04-30 04:33 502K
20260430T00Z_MSC_GDPS_WindU_IsbL-0005_LatLon0.15_PT177H.grib2 2026-04-30 04:33 687K
20260430T00Z_MSC_GDPS_WindU_IsbL-0500_LatLon0.15_PT177H.grib2 2026-04-30 04:33 1.1M
20260430T00Z_MSC_GDPS_WindU_IsbL-0700_LatLon0.15_PT177H.grib2 2026-04-30 04:33 1.2M
20260430T00Z_MSC_GDPS_WindU_IsbL-0850_LatLon0.15_PT177H.grib2 2026-04-30 04:33 1.4M
20260430T00Z_MSC_GDPS_WindU_IsbL-0925_LatLon0.15_PT177H.grib2 2026-04-30 04:33 1.4M
20260430T00Z_MSC_GDPS_WindU_IsbL-1000_LatLon0.15_PT177H.grib2 2026-04-30 04:33 1.4M
20260430T00Z_MSC_GDPS_WindV_AGL-10m_LatLon0.15_PT177H.grib2 2026-04-30 04:33 1.5M
20260430T00Z_MSC_GDPS_WindV_AGL-120m_LatLon0.15_PT177H.grib2 2026-04-30 04:33 958K
20260430T00Z_MSC_GDPS_WindV_AGL-40m_LatLon0.15_PT177H.grib2 2026-04-30 04:33 954K
20260430T00Z_MSC_GDPS_WindV_AGL-80m_LatLon0.15_PT177H.grib2 2026-04-30 04:33 959K
20260430T00Z_MSC_GDPS_WindV_IsbL-0001_LatLon0.15_PT177H.grib2 2026-04-30 04:33 713K
20260430T00Z_MSC_GDPS_WindV_IsbL-0005_LatLon0.15_PT177H.grib2 2026-04-30 04:33 853K
20260430T00Z_MSC_GDPS_WindV_IsbL-0500_LatLon0.15_PT177H.grib2 2026-04-30 04:33 1.1M
20260430T00Z_MSC_GDPS_WindV_IsbL-0700_LatLon0.15_PT177H.grib2 2026-04-30 04:33 1.2M
20260430T00Z_MSC_GDPS_WindV_IsbL-0850_LatLon0.15_PT177H.grib2 2026-04-30 04:33 1.4M
20260430T00Z_MSC_GDPS_WindV_IsbL-0925_LatLon0.15_PT177H.grib2 2026-04-30 04:33 1.4M
20260430T00Z_MSC_GDPS_WindV_IsbL-1000_LatLon0.15_PT177H.grib2 2026-04-30 04:33 1.4M